カタログに戻る

ALICE

運用中科学LEO
NORAD 39467·PAYLOAD·🇺🇸 United States

打ち上げ Dec 6, 2013 から Vandenberg Space Force Base

Loading…

次のパス (今後24時間)

TLE

最新Source: Space-Track

元期: Sep 14, 2026, 08:05 UTC

1 39467U 13072F   26257.33694453  .00009730  00000-0  43469-3 0  9999
2 39467 120.4628 279.6257 0169805  89.0501 273.0018 15.10251866128731

AllMySatでALICEをリアルタイム追跡

Download on the App Store